Location: Laura�t
(43.9341°N, 0.2497°E)
Time: 08:32:14
(UTC+00:00)

SL-08 R/B - Pass Details

Date: 03 March 2021
Orbit: 949 x 1019 km, 82.9° (Epoch: 18 April)

Event Time Altitude Azimuth Distance (km) Brightness Sun altitude
Rises 20:05:36 0° 179° (S) 3,720 7.4 -25.0°
Enters shadow 20:06:05 - 178° (S) 3,537 7.3 -25.0°
Exits shadow 20:11:52 38° 168° (SSE) 1,503 5.2 -26.0°
Maximum altitude 20:14:29 72° 94° (E) 1,070 4.4 -26.5°
Drops below altitude 10° 20:20:57 10° 12° (NNE) 2,817 7.0 -27.6°
Sets 20:23:30 0° 10° (N) 3,771 7.7 -28.0°
